Regional Weather Roundup
Issued by NWS Jackson, KY

Home | Current Version | Previous Version | Text Only | Print | Product List | Glossary Off
Versions: 1 2 3 4 5 6 7 8 9 10 11 12 13 14 15 16 17 18 19 20 21 22 23 24 25 26 27 28

000
ASUS43 KJKL 291210
RWRJKL

EAST KENTUCKY HOURLY WEATHER ROUNDUP
NATIONAL WEATHER SERVICE JACKSON KY
800 AM EDT FRI APR 29 2016

NOTE: "FAIR" INDICATES FEW OR NO CLOUDS BELOW 12,000 FEET WITH
NO SIGNIFICANT WEATHER AND/OR OBSTRUCTIONS TO VISIBILITY.

* THESE REPORTS ARE NOT UNDER NWS QUALITY CONTROL AND MAY NOT
  REPORT WEATHER SUCH AS PRECIPITATION AND FOG.

KYZ079-080-083-085-087-088-110-112-115-119-120-291300
...EASTERN KENTUCKY...

CITY           SKY/WX    TMP DP  RH WIND       PRES   REMARKS
JACKSON        CLOUDY    59  51  75 CALM      30.04R
6HR MIN TEMP:  56; 6HR MAX TEMP:  64;

LONDON         CLOUDY    53  51  93 CALM      30.05R
6HR MIN TEMP:  51; 6HR MAX TEMP:  57;

SOMERSET*      PTSUNNY   52  52 100 CALM      30.07R
MONTICELLO*    CLOUDY    54  53  97 NW9       30.06S
6HR MIN TEMP:  49; 6HR MAX TEMP:  54;

WILLIAMSBURG*  CLOUDY    54  54 100 CALM      30.06R
MIDDLESBORO*   CLOUDY    55  53  94 CALM      30.07R
6HR MIN TEMP:  51; 6HR MAX TEMP:  68;

HARLAN APT*    CLOUDY    54  52  94 CALM      30.06S VSB<1/4
HAZARD APT*    SUNNY     57  57 100 CALM      30.05R
BLACK MTN*       N/A     54  46  76 W2          N/A
PIKE CO APT*     N/A     59  53  80 CALM      30.04R
BIG SANDY APT* SUNNY     58  53  83 SW3       30.04R
6HR MIN TEMP:  56; 6HR MAX TEMP:  62;

MOREHEAD APT*  CLOUDY    54  52  94 CALM      30.04S
$$

KYZ035-036-041-042-044-050-067-078-099-291300
...CENTRAL KENTUCKY...

CITY           SKY/WX    TMP DP  RH WIND       PRES   REMARKS
MT STERLING*   CLOUDY    54  52  94 SW6       30.05R
FLEMING/MASON* FOG       55  55 100 NW7       30.04R VSB<1/4
DANVILLE*      MOSUNNY   52  50  93 CALM      30.07R
RICHMOND*      MOSUNNY   55  50  82 W3        30.05R
LEXINGTON      PTSUNNY   55  51  86 W5        30.05R
6HR MIN TEMP:  51; 6HR MAX TEMP:  59;

FRANKFORT      PTSUNNY   55  50  83 NW3       30.03R
6HR MIN TEMP:  51; 6HR MAX TEMP:  61;

LOUISVILLE     CLOUDY    57  50  77 NW3       30.05R
6HR MIN TEMP:  56; 6HR MAX TEMP:  62;

LEBANON*         N/A     55  52  88 CALM      30.06R
BOWLING GREEN  MOSUNNY   55  53  93 CALM      30.04R
6HR MIN TEMP:  53; 6HR MAX TEMP:  58;

$$

KYZ091>093-OHZ055-061-077-WVZ005-015-034-035-042-291300
...SOUTHERN OHIO/WEST VIRGINIA...

CITY           SKY/WX    TMP DP  RH WIND       PRES   REMARKS
COVINGTON      CLOUDY    55  53  93 W8        30.02R FOG
COLUMBUS       CLOUDY    49  48  97 W9        30.00R FOG
DAYTON         FOG       48  48 100 N7        30.03R VSB 3/4
WILMINGTON     FOG       52  52 100 W6        30.00S VSB 1/4
HUNTINGTON       N/A     57  55  93 S3        30.01R
CHARLESTON     PTSUNNY   60  57  89 SW8       30.01R
PINEVILLE*     FOG       53  51  91 MISG      30.09S VSB 1/4
BECKLEY          N/A     56  53  90 SW7       30.04R
$$

VAZ002-007-008-TNZ017-027-036-066-071-291300
...SOUTHWEST VIRGINIA/EAST TENNESSEE...

CITY           SKY/WX    TMP DP  RH WIND       PRES   REMARKS
WISE*            N/A     57  45  62 CALM      30.09R
BRISTOL        MOSUNNY   57  55  93 CALM      30.06R
MORRISTOWN*    SUNNY     61  54  77 SW3       30.06R
SEVIERVILLE*   SUNNY     55  54  94 CALM      30.06R
KNOXVILLE      CLOUDY    63  55  75 CALM      30.05
OAK RIDGE      CLOUDY    61  53  75 CALM      30.07R
CROSSVILLE     CLOUDY    56  51  84 CALM      30.07S
NASHVILLE      MOSUNNY   56  52  86 CALM      30.02S
$$

...KEY TO REMARKS...
VSB - VISIBILITY IN MILES
WCI - WIND CHILL INDEX
HX  - HEAT INDEX

$$




USA.gov is the U.S. government's official web portal to all federal, state and local government web resources and services.